24-hrs_data_Yukidori_2014.csv,,,,,,,,,,,,,,,,,,,,,,,
TIMESTAMP,Wind_speed,Wind_dir,Wind_Spd_Max,Wind_Spd_TMx,Wind_dir,Air_Temp_Avg,Air_Temp_Max,Air_Temp_TMx,Air_Temp_Min,Air_Temp_TMn,Humidity_Avg,Humidity_Max,Humidity_TMx,Humidity_Min,Humidity_TMn,Sun_Wm2_Avg,PAR_Avg,UV_Wm2_Avg,Press_hPa_Avg,Press_hPa_Max,Press_hPa_TMx,Press_hPa_Min,Press_hPa_TMn
(yyyy/mm/dd hh:mm),(m/s),(degree),(m/s),(yyyy/mm/dd hh:mm),(degree),(��),(��),(yyyy/mm/dd hh:mm),(��),(yyyy/mm/dd hh:mm),(%),(%),(yyyy/mm/dd hh:mm),(%),(yyyy/mm/dd hh:mm),(W/m^2),(micro-mol/m^2/s),(W/m^2),(hPa),(hPa),(yyyy/mm/dd hh:mm),(hPa),(yyyy/mm/dd hh:mm)
,Avg,Avg,Max,TMx,SMM,Avg,Max,TMx,Min,TMn,Avg,Max,TMx,Min,TMn,Avg,Avg,Avg,Avg,Max,TMx,Min,TMn
2014/1/30 0:00,1.756,345.49,6.076,2014/1/29 11:39,328.86,-1.596,1.594,2014/1/29 14:04,-4.979,2014/1/29 21:53,73.63,98.1,2014/1/29 21:18,56.08,2014/1/29 11:31,273.1802,531.0568,13.30655,985.2043,986.1881,2014/1/29 16:25,983.9457,2014/1/29 0:00
2014/1/31 0:00,1.904,42,6.174,2014/1/30 8:16,85.2,-3.037,-1.549,2014/1/30 15:43,-4.81,2014/1/30 5:42,81.1,100,2014/1/30 23:46,61.42,2014/1/30 10:30,196.6858,394.5825,10.96546,985.345,986.3127,2014/1/30 23:23,984.8177,2014/1/30 6:40
2014/2/1 0:00,1.01,265.2,4.018,2014/1/31 0:28,85.2,-2.912,-0.879,2014/1/31 16:53,-4.682,2014/1/31 1:28,88.6,100,2014/1/31 0:00,63.12,2014/1/31 17:11,107.872,242.152,6.256291,987.3061,988.1815,2014/1/31 22:39,986.1881,2014/1/31 0:23
2014/2/2 0:00,1.027,280.7,5.684,2014/2/1 23:32,56.2,-2.612,-0.292,2014/2/1 14:49,-4.262,2014/2/1 7:41,93.8,98.3,2014/2/1 18:16,78.08,2014/2/1 14:49,97.92998,242.6173,3.951996,987.9147,988.5763,2014/2/1 4:03,987.0603,2014/2/1 20:13
2014/2/3 0:00,2.43,46.6,13.13,2014/2/2 17:03,87.6,-1.79,0.924,2014/2/2 16:31,-3.216,2014/2/2 4:25,66.28,94.2,2014/2/2 4:17,30.66,2014/2/2 23:48,150.003,330.5105,5.392612,986.6173,988.0571,2014/2/2 11:39,982.9493,2014/2/2 23:52
2014/2/4 0:00,5.975,92.6,25.38,2014/2/3 13:42,65.9,-1.042,1.414,2014/2/3 17:09,-3.445,2014/2/3 2:28,52.14,71.47,2014/2/3 11:33,26.65,2014/2/3 4:21,109.051,280.067,7.954062,974.6109,983.0739,2014/2/3 0:04,970.1179,2014/2/3 19:40
2014/2/5 0:00,6.702,78.9,29.6,2014/2/4 14:39,68.3,0.478,1.936,2014/2/4 11:27,-0.996,2014/2/4 0:17,59.28,66.21,2014/2/4 13:16,49.87,2014/2/4 0:55,141.8718,331.3636,9.305269,973.3477,979.3365,2014/2/4 23:32,968.6229,2014/2/4 13:37
2014/2/6 0:00,4.285,76.5,22.54,2014/2/5 22:14,81.8,1.984,4.237,2014/2/5 14:36,0.215,2014/2/5 7:11,43.67,62.2,2014/2/5 0:22,30.9,2014/2/5 9:37,176.6949,382.3383,10.34902,980.6324,981.5789,2014/2/5 6:44,979.2119,2014/2/5 0:00
2014/2/7 0:00,3.123,74,17.05,2014/2/6 0:20,116.5,0.305,2.348,2014/2/6 12:05,-1.294,2014/2/6 23:57,70.63,95.9,2014/2/7 0:00,50.53,2014/2/6 1:11,82.59029,208.9936,5.952698,982.0494,984.1951,2014/2/6 23:47,978.9628,2014/2/6 0:31
2014/2/8 0:00,1.064,295.1,4.606,2014/2/7 5:11,48.5,-1.427,-0.209,2014/2/7 12:20,-2.97,2014/2/7 23:59,83.1,98.5,2014/2/7 3:52,67.64,2014/2/7 6:56,71.03026,172.2139,4.763093,987.4697,989.3027,2014/2/7 22:45,984.1951,2014/2/7 0:00
2014/2/9 0:00,1.118,252.9,7.154,2014/2/8 22:07,77.4,-1.941,1.091,2014/2/8 22:04,-5.115,2014/2/8 2:47,81.7,100,2014/2/8 2:23,47,2014/2/8 21:48,156.0439,329.6079,9.205229,985.9029,989.0535,2014/2/8 0:00,980.084,2014/2/8 23:47
2014/2/10 0:00,1.347,209,6.958,2014/2/9 2:15,62.5,0.721,2.264,2014/2/9 14:13,-0.959,2014/2/9 2:30,66,97.5,2014/2/9 12:09,33.51,2014/2/9 4:02,105.7049,256.7581,7.168865,977.7432,986.0637,2014/2/9 23:54,973.606,2014/2/9 7:24
2014/2/11 0:00,4.251,65.2,16.46,2014/2/10 5:22,74.1,-0.342,1.299,2014/2/10 16:07,-1.545,2014/2/10 5:45,59.24,83.1,2014/2/10 20:14,40.92,2014/2/10 22:11,95.96255,226.4107,6.35516,992.6432,995.407,2014/2/10 16:10,986.0637,2014/2/10 0:00
2014/2/12 0:00,1.173,252.4,11.66,2014/2/11 0:33,95.3,-0.892,0.853,2014/2/11 9:44,-3.177,2014/2/11 22:21,69.48,97.3,2014/2/11 22:16,33.24,2014/2/11 3:31,120.2149,290.4431,7.73001,990.4692,993.4137,2014/2/11 0:15,988.1815,2014/2/11 18:57
2014/2/13 0:00,1.777,190.8,10,2014/2/12 10:14,85.2,-1.373,1.062,2014/2/12 11:41,-3.094,2014/2/12 3:33,65.83,95.6,2014/2/12 3:39,43.82,2014/2/12 10:53,192.8104,392.8959,10.2713,986.2432,988.306,2014/2/12 0:00,985.0671,2014/2/12 18:29
2014/2/14 0:00,1.354,297.8,9.21,2014/2/13 22:18,258.9,-1.752,0.043,2014/2/13 15:43,-3.176,2014/2/13 5:11,65.05,83.8,2014/2/13 23:04,45.55,2014/2/13 19:00,83.8632,209.0793,6.128433,986.364,987.4813,2014/2/13 10:50,984.3196,2014/2/13 23:48
2014/2/15 0:00,2.042,121.7,10.68,2014/2/14 1:23,77.5,-1.24,0.135,2014/2/14 12:31,-3.016,2014/2/14 3:39,52.51,82.4,2014/2/14 0:34,36.41,2014/2/14 9:21,143.5761,319.3134,8.8606,981.4943,984.3196,2014/2/14 0:00,979.3365,2014/2/14 19:15
2014/2/16 0:00,3.095,73.1,11.96,2014/2/15 23:52,106.9,-0.149,1.93,2014/2/15 15:26,-2.551,2014/2/15 23:49,50.51,65.36,2014/2/15 8:07,38.78,2014/2/16 0:00,110.0723,270.8676,7.905921,978.3852,980.9561,2014/2/15 3:56,974.8518,2014/2/15 23:24
2014/2/17 0:00,2.863,42.2,14.41,2014/2/16 1:45,70.2,-2.523,-0.249,2014/2/16 16:39,-4.932,2014/2/16 6:24,42.34,59.6,2014/2/16 11:18,33.31,2014/2/16 1:30,237.3041,441.2972,11.43446,973.5034,975.2255,2014/2/17 0:00,972.3602,2014/2/16 12:44
2014/2/18 0:00,1.577,345.52,7.448,2014/2/17 12:42,246.4,-2.247,0.504,2014/2/17 15:30,-5.586,2014/2/17 3:55,46.08,66.29,2014/2/17 4:58,35.45,2014/2/17 11:49,228.4468,428.6051,11.0961,978.9518,981.2052,2014/2/17 22:42,975.101,2014/2/17 0:01
2014/2/19 0:00,1.622,245.8,4.9,2014/2/18 1:47,76.5,-1.907,1.804,2014/2/18 14:22,-6.105,2014/2/18 23:20,50.57,83.8,2014/2/18 22:01,33.95,2014/2/18 14:21,213.1678,415.656,10.69423,981.063,982.7051,2014/2/18 9:05,977.8416,2014/2/18 23:57
2014/2/20 0:00,1.143,263.8,5.194,2014/2/19 11:17,282.2,-7.013,-4.121,2014/2/19 3:11,-10.7,2014/2/19 5:54,71.57,86.9,2014/2/19 5:50,51.68,2014/2/19 12:56,231.4449,419.318,10.80436,972.91,977.8416,2014/2/19 0:00,970.2424,2014/2/19 20:11
2014/2/21 0:00,3.412,77.6,17.05,2014/2/20 18:31,70.2,-2.657,0.425,2014/2/20 17:01,-8.23,2014/2/20 0:00,60.78,73.59,2014/2/20 4:11,52.06,2014/2/20 13:55,64.21965,162.6761,4.663195,972.3391,974.7028,2014/2/20 20:34,970.3674,2014/2/20 0:04
2014/2/22 0:00,4.224,74.5,17.05,2014/2/21 0:48,110.8,0.878,2.478,2014/2/21 14:27,-0.703,2014/2/21 0:55,52.08,60.85,2014/2/21 5:19,42.56,2014/2/21 14:27,35.21776,108.0699,3.41575,967.877,974.4641,2014/2/21 0:35,963.5153,2014/2/21 19:36
2014/2/23 0:00,7.768,73.7,31.46,2014/2/22 15:36,79.4,0.21,1.893,2014/2/22 12:53,-0.901,2014/2/22 4:20,55.4,74.64,2014/2/22 17:51,39.6,2014/2/22 3:47,85.17158,217.4113,6.336926,964.5489,970.6161,2014/2/22 23:31,959.778,2014/2/22 15:44
2014/2/24 0:00,3.344,72.6,15.78,2014/2/23 0:07,64.9,0.194,2.935,2014/2/23 17:40,-1.718,2014/2/23 4:46,46.34,60.75,2014/2/23 12:57,36.51,2014/2/23 13:36,85.31639,196.1445,5.208138,969.9025,970.8653,2014/2/23 22:41,969.3704,2014/2/23 3:26
2014/2/25 0:00,2.237,74.1,10.39,2014/2/24 6:38,94.8,-1.801,-0.711,2014/2/24 1:16,-2.574,2014/2/24 23:56,55.31,77.74,2014/2/24 14:15,37.46,2014/2/24 22:01,63.41005,155.1378,4.529639,973.6834,975.8484,2014/2/24 23:58,970.7407,2014/2/24 0:08
2014/2/26 0:00,2.688,74.2,13.03,2014/2/25 22:33,61.5,-2.058,0.061,2014/2/25 15:45,-3.803,2014/2/25 6:43,41.79,52.36,2014/2/25 11:22,35.25,2014/2/25 17:18,90.73812,194.5044,5.788957,975.7058,977.2582,2014/2/25 23:42,974.7272,2014/2/25 15:55
2014/2/27 0:00,4.085,73.3,16.07,2014/2/26 23:29,88.6,-4.161,-1.965,2014/2/26 0:19,-7.315,2014/2/26 22:40,37,47.74,2014/2/26 4:30,27.47,2014/2/26 23:50,146.3118,278.3259,7.788277,979.2612,980.5867,2014/2/26 17:14,977.1094,2014/2/26 0:32
2014/2/28 0:00,7.634,75.7,26.75,2014/2/27 10:34,139.9,-5.479,-2.882,2014/2/27 18:14,-8.11,2014/2/27 2:59,61.28,87.7,2014/2/27 20:23,25.81,2014/2/27 0:50,42.07721,119.3045,3.600785,966.8611,978.3434,2014/2/27 0:09,960.8942,2014/2/27 18:07
2014/3/1 0:00,5.12,70.1,20.58,2014/2/28 7:22,62.6,-1.656,0.97,2014/2/28 17:27,-3.761,2014/2/28 0:05,45.17,62.1,2014/2/28 0:09,32.23,2014/2/28 21:55,102.0002,234.3374,5.877519,967.1211,973.3376,2014/2/28 23:53,962.6395,2014/2/28 0:04
2014/3/2 0:00,2.47,84.5,9.7,2014/3/1 0:19,96.3,-2.521,-0.083,2014/3/1 15:01,-5.395,2014/3/1 23:38,42.43,59.44,2014/3/1 9:54,30.87,2014/3/1 0:22,184.2038,336.9466,8.297626,978.2629,982.8247,2014/3/1 23:57,972.858,2014/3/1 0:05
2014/3/3 0:00,1.753,323.3,6.664,2014/3/2 0:23,68.8,-4.948,-2.378,2014/3/2 9:23,-7.423,2014/3/2 23:03,52.63,86.5,2014/3/2 21:41,38.19,2014/3/2 10:28,171.6129,322.4355,8.057183,983.2131,984.0812,2014/3/2 7:59,982.2018,2014/3/2 18:13
2014/3/4 0:00,0.988,253.9,4.802,2014/3/3 11:43,283.3,-7.383,-5.938,2014/3/3 15:33,-9.54,2014/3/3 3:46,71.51,88.1,2014/3/3 0:12,52.61,2014/3/3 2:40,46.91086,113.597,3.360001,982.4299,983.0839,2014/3/3 10:19,981.7126,2014/3/3 19:12
2014/3/5 0:00,1.081,202.9,4.508,2014/3/4 20:57,76.5,-4.523,-2.339,2014/3/4 15:10,-6.604,2014/3/4 0:00,61.16,83.3,2014/3/4 4:23,44.35,2014/3/4 14:30,85.90543,186.8177,5.227465,984.7419,988.9788,2014/3/4 23:48,981.7126,2014/3/4 0:22
2014/3/6 0:00,1.516,56.2,12.54,2014/3/5 18:13,82.8,-4.127,-0.41,2014/3/5 15:15,-6.611,2014/3/5 5:39,42.16,69.51,2014/3/5 1:37,23.39,2014/3/5 23:44,121.3261,238.3421,6.444451,985.6268,990.4389,2014/3/5 3:58,974.9786,2014/3/5 23:58
2014/3/7 0:00,3.352,67.9,17.54,2014/3/6 10:55,55.8,-2.464,-0.707,2014/3/6 14:57,-7.566,2014/3/6 2:40,46.59,81,2014/3/6 2:41,25.5,2014/3/6 0:20,34.01357,93.12012,2.722787,968.5198,974.9786,2014/3/6 0:00,965.2789,2014/3/6 13:57
2014/3/8 0:00,2.235,56.7,11.37,2014/3/7 4:22,93,-2.256,-0.54,2014/3/7 14:38,-3.719,2014/3/7 23:41,54.89,83.5,2014/3/7 18:30,39.34,2014/3/7 3:26,53.75327,125.5099,3.594188,973.5632,979.7116,2014/3/7 23:49,968.7479,2014/3/7 0:00
2014/3/9 0:00,2.571,70.6,9.21,2014/3/8 6:57,79.4,-2.659,-0.539,2014/3/8 17:22,-4.43,2014/3/8 23:29,51.3,79.28,2014/3/8 0:32,41.38,2014/3/8 2:01,75.32841,165.8892,4.75694,983.7326,985.4468,2014/3/8 15:42,979.5641,2014/3/8 0:00
2014/3/10 0:00,2.116,57.5,8.82,2014/3/9 21:00,61.1,-3.517,-1.611,2014/3/9 13:29,-4.836,2014/3/9 3:12,62.9,87.9,2014/3/9 16:03,43.83,2014/3/9 1:52,55.5747,125.9852,3.662477,978.7537,984.5743,2014/3/9 0:01,975.6019,2014/3/9 20:21
2014/3/11 0:00,5.022,76.2,13.82,2014/3/10 22:19,82.3,-3.264,-1.864,2014/3/10 15:34,-4.303,2014/3/10 7:09,55.89,68.11,2014/3/10 0:03,46.92,2014/3/10 19:22,50.81777,121.7423,3.55797,977.7779,980.3866,2014/3/10 23:58,975.7266,2014/3/10 0:18
2014/3/12 0:00,2.618,16.4,13.03,2014/3/11 1:09,76.6,-4.949,-1.542,2014/3/11 12:43,-9.57,2014/3/11 23:01,61.23,87.6,2014/3/11 22:46,44.28,2014/3/11 10:33,93.39651,190.6042,5.269959,983.7498,986.5673,2014/3/12 0:00,980.2329,2014/3/11 0:03
2014/3/13 0:00,1.5,105.1,7.35,2014/3/12 7:31,95.9,-6.416,-4.097,2014/3/12 17:39,-9.24,2014/3/12 5:00,49.91,86.7,2014/3/12 22:30,28.8,2014/3/12 2:38,85.1989,174.9746,4.963013,987.6472,988.4443,2014/3/12 10:57,986.5049,2014/3/12 0:18
2014/3/14 0:00,1.188,38.8,5.684,2014/3/13 7:27,98.8,-5.727,-1.707,2014/3/13 11:20,-8.78,2014/3/13 23:46,67.05,90.7,2014/3/13 1:49,41.39,2014/3/13 23:13,109.842,213.7993,5.757885,984.4121,987.0731,2014/3/13 0:00,982.9545,2014/3/13 16:14
2014/3/15 0:00,1.873,41.7,6.86,2014/3/14 1:28,68.8,-6.739,-2.714,2014/3/14 13:32,-9.12,2014/3/14 1:03,56.29,76.04,2014/3/14 17:11,40.3,2014/3/14 20:25,96.17268,187.9391,5.334009,984.6865,987.5717,2014/3/14 23:22,982.8346,2014/3/14 5:01
2014/3/16 0:00,1.168,345.78,6.272,2014/3/15 6:09,70.8,-7.123,-4.891,2014/3/15 15:31,-9.91,2014/3/15 23:22,59.19,83.4,2014/3/15 23:45,42.65,2014/3/15 1:19,71.76376,155.5213,4.378208,989.5666,992.4335,2014/3/15 23:15,987.5717,2014/3/15 0:00
2014/3/17 0:00,0.688,297.5,4.9,2014/3/16 22:48,47.6,-8.17,-5.402,2014/3/16 11:55,-12.45,2014/3/16 6:29,68.2,88.6,2014/3/16 6:33,35.17,2014/3/16 23:57,80.83691,167.7404,4.677753,994.7545,995.9243,2014/3/16 15:51,992.4335,2014/3/16 0:00
2014/3/18 0:00,1.234,58.9,9.31,2014/3/17 13:51,73.7,-6.394,-3.217,2014/3/17 15:30,-10.02,2014/3/17 8:58,47.07,73.15,2014/3/17 21:56,24.73,2014/3/17 13:00,106.7521,199.8782,5.261388,994.2053,995.5503,2014/3/17 1:50,991.9348,2014/3/17 23:39
2014/3/19 0:00,1.527,32.4,11.96,2014/3/18 16:58,91,-5.957,-1.603,2014/3/18 18:09,-9.53,2014/3/18 2:26,52.12,86.4,2014/3/18 7:05,12.45,2014/3/18 18:11,102.0527,192.5413,4.915662,987.4671,992.0595,2014/3/18 0:00,982.8346,2014/3/18 23:55
2014/3/20 0:00,4.317,72.4,17.64,2014/3/19 16:59,46.1,-7.054,-4.555,2014/3/19 14:11,-9.56,2014/3/19 8:33,22.36,50.01,2014/3/19 13:12,12.82,2014/3/19 3:12,93.54044,170.1918,4.773545,977.8715,982.9592,2014/3/19 0:00,973.9836,2014/3/19 23:56
2014/3/21 0:00,5.672,74.7,25.19,2014/3/20 19:32,72.2,-4.513,-2.798,2014/3/20 13:43,-7.23,2014/3/20 0:17,41.02,58.73,2014/3/20 17:48,24.08,2014/3/20 1:04,34.44027,86.68229,2.501321,969.8044,974.6069,2014/3/20 0:12,967.1273,2014/3/20 17:48
2014/3/22 0:00,3.729,98.6,23.91,2014/3/21 7:33,76.1,-4.66,-2.98,2014/3/21 12:42,-7.033,2014/3/21 20:55,63.78,92.4,2014/3/21 14:11,43.19,2014/3/21 6:45,26.83912,67.75492,1.900203,975.8376,980.9647,2014/3/21 23:57,969.9945,2014/3/21 0:12
2014/3/23 0:00,1.328,60.9,6.272,2014/3/22 0:31,66.9,-5.053,-2.714,2014/3/22 13:42,-8.94,2014/3/22 23:45,57.34,85.3,2014/3/22 21:27,44.86,2014/3/22 5:29,58.63292,121.5436,3.439675,983.2165,984.8291,2014/3/22 22:18,980.9647,2014/3/22 0:00
2014/3/24 0:00,0.631,273.5,3.332,2014/3/23 5:13,262,-10,-7.415,2014/3/23 1:53,-14.71,2014/3/24 0:00,78.77,88.8,2014/3/23 5:24,66.53,2014/3/23 14:49,81.40083,153.7046,4.105269,984.8931,985.5771,2014/3/23 15:09,984.0812,2014/3/23 23:38
2014/3/25 0:00,4.228,77.6,20.97,2014/3/24 18:46,78.1,-9.85,-4.47,2014/3/24 23:59,-16.21,2014/3/24 0:36,68.37,87,2014/3/24 6:31,28.63,2014/3/24 11:07,23.14454,60.25991,1.620299,969.9705,984.1117,2014/3/24 0:18,957.6533,2014/3/24 23:58
2014/3/26 0:00,1.542,291.4,14.99,2014/3/25 0:16,60.2,-7.133,-4.01,2014/3/25 0:15,-11.49,2014/3/25 22:26,80.4,95.3,2014/3/25 19:34,46.64,2014/3/25 0:18,46.36465,102.9349,2.805393,962.7812,973.3606,2014/3/26 0:00,957.6543,2014/3/25 0:15
2014/3/27 0:00,4.449,72,20.38,2014/3/26 23:59,65.5,-8.75,-6.17,2014/3/26 22:40,-9.76,2014/3/26 6:44,49.89,85.3,2014/3/26 0:27,28.14,2014/3/26 17:07,60.68235,123.2819,3.529935,980.8322,984.4668,2014/3/26 12:51,973.3606,2014/3/26 0:00
2014/3/28 0:00,6.014,80.6,22.05,2014/3/27 4:37,58.8,-5.747,-3.551,2014/3/27 20:25,-9.26,2014/3/27 0:15,69.27,88.1,2014/3/27 8:29,50.24,2014/3/27 22:58,17.42422,49.97554,1.507383,972.9362,981.2144,2014/3/27 0:01,968.6234,2014/3/27 15:55
2014/3/29 0:00,4.048,73.5,13.03,2014/3/28 23:50,82.9,-5.903,-4.389,2014/3/28 0:04,-8.82,2014/3/28 22:57,54.88,65.48,2014/3/28 13:54,44.15,2014/3/28 20:39,31.72075,73.80976,2.049911,980.2267,983.7075,2014/3/28 22:28,973.9839,2014/3/28 0:07
2014/3/30 0:00,5.436,78.8,24.6,2014/3/29 23:08,67.9,-5.446,-2.001,2014/3/29 22:42,-8.97,2014/3/29 1:47,55.1,76.94,2014/3/29 23:53,33.82,2014/3/29 9:58,27.538,64.22114,1.791671,973.1855,983.7075,2014/3/29 0:02,954.6614,2014/3/29 23:58
2014/3/31 0:00,7.453,61.8,30.67,2014/3/30 2:26,64.5,-1.428,0.553,2014/3/30 12:41,-3.551,2014/3/30 21:50,74.86,93.6,2014/3/30 5:12,57.8,2014/3/30 20:37,59.23007,123.0223,2.983712,957.3354,962.0925,2014/3/30 23:50,949.9243,2014/3/30 2:05
2014/4/1 0:00,6.571,62.5,19.5,2014/3/31 18:28,83.3,-2.903,-1.585,2014/3/31 12:21,-4.178,2014/3/31 22:53,70.05,85.7,2014/3/31 10:36,63.12,2014/4/1 0:00,57.73534,117.2044,2.824296,973.7679,980.9647,2014/3/31 23:41,962.0823,2014/3/31 0:00
2014/4/2 0:00,2.5,24.03,15.19,2014/4/1 0:02,72.7,-7.302,-2.674,2014/4/1 6:08,-14.33,2014/4/1 23:56,61.89,84.2,2014/4/1 20:30,36.05,2014/4/1 12:37,36.05906,74.61177,2.759318,980.924,982.3359,2014/4/1 7:41,979.3441,2014/4/1 16:17
2014/4/3 0:00,0.622,348.03,8.92,2014/4/2 22:55,86.3,-12.03,-5.851,2014/4/2 22:53,-15.04,2014/4/2 7:45,73.34,83.6,2014/4/2 0:16,55.13,2014/4/2 21:07,28.67347,61.56307,1.651189,981.6186,982.3718,2014/4/2 11:32,979.4698,2014/4/2 23:55
2014/4/4 0:00,5.662,76.5,20.78,2014/4/3 13:10,66.9,-4.698,-1.709,2014/4/3 21:56,-9.44,2014/4/3 0:42,62.69,77.49,2014/4/3 1:06,50.93,2014/4/3 10:44,21.10374,51.90284,1.559731,970.1382,979.4739,2014/4/3 0:00,965.1329,2014/4/3 16:26
2014/4/5 0:00,2.726,61.3,17.15,2014/4/4 0:08,68.4,-4.698,-2.295,2014/4/4 0:21,-6.979,2014/4/4 23:40,51.86,61.26,2014/4/4 23:56,46.26,2014/4/4 7:42,20.98501,50.33304,1.446752,972.7063,978.721,2014/4/4 23:08,966.7535,2014/4/4 0:03
2014/4/6 0:00,0.72,339.87,5.39,2014/4/5 1:16,73.7,-9.52,-6.564,2014/4/5 0:17,-13.07,2014/4/5 23:01,83.9,94.2,2014/4/5 21:41,57.63,2014/4/5 2:10,21.27207,49.86917,1.512175,980.0709,980.5909,2014/4/5 17:28,978.5963,2014/4/5 0:00
2014/4/7 0:00,0.275,71.8,3.038,2014/4/6 5:48,273.8,-13.28,-9.03,2014/4/6 13:28,-16.21,2014/4/6 7:53,85.1,92.6,2014/4/6 1:26,62.25,2014/4/6 13:29,23.2471,57.32079,0.9618804,983.8743,987.3356,2014/4/6 23:54,980.5164,2014/4/6 0:00
2014/4/8 0:00,6.144,69.8,29.2,2014/4/7 15:25,81,-9.64,-6.436,2014/4/7 17:00,-13.29,2014/4/7 2:44,85,95.3,2014/4/7 14:59,59.87,2014/4/7 9:51,13.75014,34.792,0.9310583,977.6431,987.8346,2014/4/7 0:47,969.0734,2014/4/7 15:58
2014/4/9 0:00,2.855,57.3,17.44,2014/4/8 3:34,78.6,-7.072,-4.473,2014/4/8 6:02,-11.32,2014/4/8 23:59,64.34,84.4,2014/4/8 17:33,43.83,2014/4/8 6:02,28.62008,61.42044,1.839107,973.7367,980.9651,2014/4/8 23:54,970.6837,2014/4/8 2:53
2014/4/10 0:00,2.227,55,19.11,2014/4/9 21:59,105.6,-10.24,-4.175,2014/4/9 18:49,-14.41,2014/4/9 9:40,71.97,85.9,2014/4/9 7:39,48.84,2014/4/9 18:51,22.72255,49.31832,1.693958,981.1367,985.5891,2014/4/9 9:20,968.4989,2014/4/10 0:00
2014/4/11 0:00,8.17,70.7,25.19,2014/4/10 14:20,63.1,-6.115,-4.931,2014/4/10 11:06,-7.542,2014/4/10 23:21,74.73,93,2014/4/10 10:05,60.17,2014/4/10 3:37,29.74276,69.14188,1.502504,960.2171,968.6237,2014/4/10 0:02,955.6587,2014/4/10 14:19
2014/4/12 0:00,3.013,75.9,19.4,2014/4/11 3:44,105.6,-7.883,-6.187,2014/4/11 4:13,-9.66,2014/4/11 23:17,52.4,73.41,2014/4/11 0:44,39.84,2014/4/11 7:19,21.70105,45.84246,1.405686,974.9808,983.1721,2014/4/11 23:59,964.1356,2014/4/11 0:00
2014/4/13 0:00,1.382,66.2,4.802,2014/4/12 0:08,91.1,-9.34,-8.59,2014/4/12 14:22,-10.4,2014/4/12 7:31,54.74,73.98,2014/4/12 6:56,45.84,2014/4/12 20:22,18.82598,41.29824,1.282949,986.7148,988.7008,2014/4/12 21:31,983.1545,2014/4/12 0:00
2014/4/14 0:00,1.933,63.1,10.68,2014/4/13 20:26,88.2,-10.93,-9.16,2014/4/13 11:18,-14.37,2014/4/13 23:54,52.11,81.5,2014/4/13 9:08,33.39,2014/4/13 23:39,20.45334,43.01406,1.275917,983.9612,988.576,2014/4/13 0:00,979.3519,2014/4/13 23:56
2014/4/15 0:00,3.136,70.7,10.29,2014/4/14 1:56,72.8,-15.82,-13.58,2014/4/14 0:01,-17.21,2014/4/14 20:27,35.32,61.37,2014/4/14 23:15,28.64,2014/4/14 15:08,7.938223,25.22324,1.496013,979.6651,980.9779,2014/4/14 16:50,978.1044,2014/4/14 5:33
2014/4/16 0:00,0.549,275.9,3.822,2014/4/15 21:35,69.9,-15.35,-13.41,2014/4/15 22:50,-16.8,2014/4/15 0:02,61.76,75.63,2014/4/15 9:05,44.92,2014/4/15 1:17,20.20792,40.22392,1.200336,983.8547,988.9644,2014/4/15 22:58,979.2308,2014/4/15 3:19
2014/4/17 0:00,6.537,81.7,24.4,2014/4/16 17:30,42.3,-8.06,-5.347,2014/4/16 17:19,-15.96,2014/4/16 0:06,47.08,63.03,2014/4/16 19:04,34.13,2014/4/16 16:37,12.08652,28.96809,0.8436984,980.4918,988.4652,2014/4/16 0:00,970.7436,2014/4/16 23:56
2014/4/18 0:00,2.684,71.4,22.25,2014/4/17 0:24,60.2,-10.24,-4.553,2014/4/17 2:51,-14.63,2014/4/17 16:08,52.13,87.2,2014/4/17 21:35,27.29,2014/4/17 10:25,11.41872,26.76622,1.211364,960.9963,971.4801,2014/4/17 1:11,954.5275,2014/4/17 22:35
2014/4/19 0:00,3.555,65.9,15.09,2014/4/18 23:05,49.1,-8.21,-7.194,2014/4/18 13:44,-9.69,2014/4/18 1:33,51.43,74.32,2014/4/18 14:36,39.38,2014/4/18 4:44,12.85058,28.18516,0.8852534,962.7568,972.2401,2014/4/18 23:56,954.9017,2014/4/18 0:00
2014/4/20 0:00,3.502,70.9,14.99,2014/4/19 1:45,65.5,-8.35,-6.546,2014/4/19 13:52,-9.85,2014/4/19 5:05,75.85,95.9,2014/4/19 19:37,48.63,2014/4/19 0:00,7.421543,19.63394,0.6726044,977.1326,979.4728,2014/4/19 21:11,972.1154,2014/4/19 0:00
2014/4/21 0:00,1.957,83,13.62,2014/4/20 2:01,79.1,-9.35,-6.938,2014/4/20 5:42,-12.44,2014/4/20 20:58,73.89,92.2,2014/4/20 8:28,47.78,2014/4/20 3:59,9.546419,22.66141,0.8691896,978.5353,980.0962,2014/4/20 4:16,975.8563,2014/4/20 23:44
2014/4/22 0:00,1.909,72.3,10.88,2014/4/21 5:57,73.3,-11.54,-9.28,2014/4/21 5:16,-14.54,2014/4/21 16:07,64.02,80.6,2014/4/21 16:10,41.46,2014/4/21 23:59,19.34152,37.5102,1.076787,974.711,977.6055,2014/4/21 23:43,973.502,2014/4/21 6:48
2014/4/23 0:00,3.11,64.3,11.86,2014/4/22 13:24,98,-10.34,-8.02,2014/4/22 23:45,-14.65,2014/4/22 6:20,56.05,78.93,2014/4/22 17:11,37.85,2014/4/22 1:21,16.4841,32.803,0.9880254,986.5424,994.0719,2014/4/23 0:00,977.6055,2014/4/22 0:00
2014/4/24 0:00,1.864,66.9,7.84,2014/4/23 2:00,97.4,-11.79,-7.903,2014/4/23 3:42,-16.33,2014/4/23 23:59,70.7,86.6,2014/4/23 6:11,48.71,2014/4/23 20:39,17.18178,33.59657,1.015086,993.9318,995.4378,2014/4/23 10:22,990.3295,2014/4/23 23:47
2014/4/25 0:00,4.864,78.3,22.25,2014/4/24 18:54,57.3,-11.07,-6.937,2014/4/24 23:58,-17.56,2014/4/24 5:42,63.45,78.15,2014/4/24 21:36,49.6,2014/4/24 1:37,14.067,28.16733,0.7397762,980.7548,990.3295,2014/4/24 0:00,972.99,2014/4/24 23:55
2014/4/26 0:00,6.937,75.9,23.91,2014/4/25 5:43,96.9,-5.831,-4.804,2014/4/25 11:42,-7.398,2014/4/25 1:31,57.73,76.98,2014/4/25 6:20,45.53,2014/4/25 23:50,16.23319,35.11794,0.7384509,965.8837,973.3642,2014/4/25 0:00,962.1461,2014/4/25 23:54
2014/4/27 0:00,6.832,71.4,21.27,2014/4/26 12:41,72.3,-8.33,-5.642,2014/4/26 0:08,-10.57,2014/4/26 12:24,49.1,66.39,2014/4/26 16:30,33.01,2014/4/26 22:41,7.96034,16.81075,0.6017522,964.2708,968.9976,2014/4/26 23:58,959.7885,2014/4/26 3:41
2014/4/28 0:00,4.031,74.9,15.68,2014/4/27 8:16,72.8,-8.81,-7.86,2014/4/27 1:22,-9.65,2014/4/27 8:37,52.49,76.57,2014/4/27 23:30,37.91,2014/4/27 8:08,5.388228,12.43761,0.4034832,969.072,971.7412,2014/4/27 22:50,967.252,2014/4/27 11:54
2014/4/29 0:00,7.309,61.2,21.66,2014/4/28 23:17,56.8,-9.33,-8.41,2014/4/28 1:56,-10.5,2014/4/28 23:58,63.25,73.95,2014/4/28 3:05,54.62,2014/4/28 22:13,7.354132,16.26706,0.5114906,977.1973,982.0916,2014/4/28 23:54,971.4918,2014/4/28 0:00
2014/4/30 0:00,2.793,62.6,18.52,2014/4/29 0:12,77.6,-12.19,-8.33,2014/4/29 2:19,-19.33,2014/4/29 23:50,65.4,87,2014/4/29 18:36,45.64,2014/4/29 7:08,9.064866,17.74056,0.5534428,982.3392,984.3073,2014/4/29 5:35,979.3519,2014/4/29 23:54
2014/5/1 0:00,0.379,333.33,2.744,2014/4/30 0:15,284.5,-22.44,-19.08,2014/4/30 0:15,-24.37,2014/4/30 11:14,76.99,84.1,2014/4/30 0:42,62.95,2014/4/30 22:21,4.223986,11.57003,0.4602312,977.7702,979.73,2014/4/30 1:17,976.9878,2014/4/30 14:02
2014/5/2 0:00,0.661,68.5,3.332,2014/5/1 19:22,72,-22.22,-19.38,2014/5/1 13:36,-24.2,2014/5/1 5:09,55.35,77.89,2014/5/1 5:32,36.2,2014/5/1 21:36,3.634917,10.94802,0.4306296,976.3434,977.118,2014/5/1 21:54,975.2516,2014/5/1 7:10
2014/5/3 0:00,0.378,86.8,3.038,2014/5/2 3:48,64.3,-25.39,-21.68,2014/5/2 1:03,-27.76,2014/5/2 23:25,65.29,78.2,2014/5/2 8:02,40.8,2014/5/2 0:18,3.940278,10.61184,0.4517603,976.7522,978.9962,2014/5/2 23:59,975.7446,2014/5/2 9:06
2014/5/4 0:00,0.308,77.2,2.744,2014/5/3 2:25,6.2,-26.26,-22.1,2014/5/3 22:47,-28.5,2014/5/3 7:43,59.65,76.32,2014/5/3 2:41,32.57,2014/5/3 22:48,3.589171,10.10476,0.382707,985.6765,993.2414,2014/5/4 0:00,978.9962,2014/5/3 0:00
2014/5/5 0:00,0.793,69.8,5.88,2014/5/4 23:55,68.2,-22.93,-13.21,2014/5/4 23:53,-26.38,2014/5/4 8:43,50.78,74.44,2014/5/4 16:49,29.74,2014/5/4 23:53,3.526979,9.028807,0.4089851,988.2946,994.2411,2014/5/4 3:55,976.6627,2014/5/4 23:53
2014/5/6 0:00,2.887,66.3,19.21,2014/5/5 10:51,104.3,-10.94,-7.602,2014/5/5 10:19,-19.09,2014/5/5 0:06,44.13,72.54,2014/5/5 7:30,27.14,2014/5/5 0:41,3.576152,7.635371,0.3013698,977.8111,983.0948,2014/5/5 23:47,974.2438,2014/5/5 4:31
2014/5/7 0:00,2.544,70.7,9.41,2014/5/6 18:03,83.5,-12.64,-9.29,2014/5/6 0:50,-14.5,2014/5/6 23:44,41.15,55.69,2014/5/6 5:10,33.54,2014/5/6 15:53,3.095598,8.666566,0.3558911,983.8691,985.7198,2014/5/6 23:32,982.8182,2014/5/6 0:06
2014/5/8 0:00,1.307,71.7,6.174,2014/5/7 3:45,67.5,-17.88,-13.46,2014/5/7 0:07,-23.5,2014/5/7 23:58,57.37,79.78,2014/5/8 0:00,42.64,2014/5/7 0:08,2.848405,8.073101,0.3288461,987.0227,987.9138,2014/5/7 23:35,985.7198,2014/5/7 0:00